The University of Tennessee Institute of Agriculture
Tmail  /  Online@UT  /  A-Z Index

Biosystems Engineering & Soil Science


West Tennessee, Cotton farm, Haywood County, daily data

Show metric units       Show half-hour records
Date Solar rad
mJ/m2
Precip
(in)
Air temp
(deg F)
Max Min Avg
Rel humid (%)
Max Min Avg
Avg
windspeed
(mi/hr)
Soil temp
6" (deg F)
Max Min Avg
Soil temp
12" (deg F)
Max Min Avg
Evap.
trans.
(in)
1/1/18 10.7 019  7  1374  37  57643  43  4332  32  32--
1/2/18 9.9 021  5  1270  37  54343  41  4232  32  32--
1/3/18 10.2 034  16  2371  27  52441  41  4132  32  32--
1/4/18Incomplete records (40) were available today.
1/5/18Incomplete records (27) were available today.
1/6/18Incomplete records (21) were available today.
1/7/18 4.1 0.0345  21  3468  33  47539  39  3932  32  32--
1/8/18 2.4 0.5545  37  40100  70  94339  39  3932  32  32--
1/9/18 2.6 0.0448  39  43100  95  99239  39  3932  32  32--
1/10/18 2.4 059  46  54100  89  96341  39  4032  32  320.02
1/11/18 2.2 0.3863  57  6199  86  93345  41  4232  32  320.03
1/12/18 3.2 0.4855  18  2797  92  94246  45  4532  32  32--
1/13/18 11.2 0.0123  18  2093  62  79045  45  4532  32  32--
1/14/18 9.2 0.0827  12  2086  47  70145  43  4332  32  32--
1/15/18 9.7 0.4037  21  2994  55  72443  43  4332  32  32--
1/16/18 10.3 027  5  1294  54  80543  41  4332  32  32--
1/17/18 10.2 018  1  989  59  76241  41  4132  32  32--
1/18/18 12.0 0.1736  7  2091  38  67241  41  4132  32  32--
1/19/18 9.8 045  23  3365  32  49441  41  4132  32  32--
1/20/18 4.7 059  41  4984  37  52341  41  4132  32  32--
1/21/18 8.3 070  54  5983  60  72443  41  4132  32  320.06
1/22/18 10.5 0.5664  48  5898  27  58645  43  4332  32  320.08
1/23/18 5.0 048  34  4182  47  62645  45  4532  32  32--
1/24/18 12.4 048  27  3696  47  75345  45  4532  32  32--
1/25/18 12.5 063  34  4581  24  53345  45  4532  32  32--
1/26/18 11.6 063  34  4873  25  48445  45  4532  32  32--
1/27/18 1.0 0.8554  52  53100  56  83345  45  4532  32  320.02
1/28/18 12.7 057  43  49100  32  69046  45  4632  32  32--
1/29/18 7.5 041  30  3779  55  66246  46  4632  32  32--
1/30/18 12.1 039  23  3185  35  62246  45  4532  32  32--
1/31/18 13.1 063  30  4564  27  43545  45  4532  32  32--
2/1/18 1.5 0.0650  30  4598  51  71245  45  4532  32  32--
2/2/18 13.5 034  21  2667  29  47445  45  4532  32  32--
2/3/18 9.0 0.1252  27  3881  19  43345  43  4332  32  32--
2/4/18 11.1 0.8052  28  4299  62  85543  43  4332  32  32--
2/5/18 13.8 043  21  3184  43  62445  43  4432  32  32--
2/6/18 3.1 0.3141  34  3797  53  72343  43  4332  32  32--
2/7/18 5.7 0.6236  28  3298  73  87443  43  4332  32  32--
2/8/18 14.2 048  23  3397  43  74143  43  4332  32  32--
2/9/18 11.3 0.0664  32  4781  30  55343  43  4332  32  32--
2/10/18 1.7 2.4154  41  48100  92  99345  43  4332  32  32--
2/11/18 2.9 0.0841  30  35100  83  94445  45  4532  32  32--
2/12/18 13.9 043  27  3384  56  72245  45  4532  32  32--
2/13/18 10.5 054  30  4284  59  75245  43  4432  32  32--
2/14/18 2.8 0.4263  50  5799  87  97445  43  4432  32  320.03
2/15/18 8.1 073  63  6898  60  80748  45  4632  32  320.07
2/16/18 2.2 0.0570  41  5393  71  80650  48  4932  32  320.02
2/17/18 2.3 0.9148  39  4299  77  90450  50  5032  32  32--
2/18/18 12.8 059  30  46100  41  78350  48  4832  32  32--
2/19/18 11.6 077  54  6494  50  78548  48  4832  32  320.09
2/20/18 12.3 077  66  7177  54  68652  48  5032  32  320.10
2/21/18 2.2 1.9272  43  5399  69  91654  52  5232  32  320.02
2/22/18 4.2 1.0754  43  48100  88  97354  52  5232  32  32--
2/23/18 6.9 0.1870  54  60100  78  95452  52  5232  32  320.06
2/24/18 2.8 1.1572  55  64100  78  93454  52  5232  32  320.03
2/25/18 6.8 0.1255  46  5094  53  73354  54  5432  32  32--
2/26/18 17.3 064  41  5192  35  65254  54  5432  32  320.10
2/27/18 15.7 070  43  5577  26  51354  52  5332  32  320.10
2/28/18 2.4 3.6763  52  57100  54  97454  52  5332  32  320.03
3/1/18 8.4 0.9663  50  58100  63  87554  54  5432  32  320.06
3/2/18 18.0 057  41  4982  36  61354  54  5432  32  32--
3/3/18 18.5 061  36  4872  24  50254  52  5332  32  32--
3/4/18 14.1 066  37  5167  26  48252  52  5232  32  320.08
3/5/18 3.9 1.0259  46  5399  59  83352  52  5232  32  320.03
3/6/18 18.8 061  39  5285  20  44652  52  5232  32  320.12
3/7/18 5.7 045  34  3972  41  57652  52  5232  32  32--
3/8/18 18.4 045  30  3775  39  57052  50  5032  32  32--
3/9/18 17.1 066  32  4883  26  52350  48  4932  32  32--
3/10/18 11.0 0.1166  50  5989  36  63350  48  5032  32  320.08
3/11/18 2.1 0.0957  37  4997  79  89252  50  5132  32  32--
3/12/18 15.4 0.0148  34  4094  54  74652  50  5132  32  32--
3/13/18 18.9 048  30  3997  38  68450  50  5032  32  32--
3/14/18 20.1 050  30  4078  22  47350  48  5032  32  32--
3/15/18 19.5 070  39  5360  24  41448  48  4832  32  320.13
3/16/18 6.3 0.1866  50  5797  46  70350  48  5032  32  320.05
3/17/18 14.8 075  52  6598  35  74652  50  5032  32  320.11
3/18/18 12.5 0.1459  45  5094  59  75352  52  5232  32  320.07
3/19/18 9.2 0.2170  46  5499  50  88554  52  5332  32  320.06
3/20/18 2.4 054  39  4590  80  85554  54  5432  32  32--
3/21/18 16.2 050  32  4191  48  68454  52  5232  32  32--
3/22/18 20.5 061  30  4699  33  64152  50  5132  32  32--
3/23/18 8.5 066  43  5475  40  58352  50  5132  32  320.06
3/24/18 5.1 072  55  6394  50  72652  52  5232  32  320.05
3/25/18 6.7 054  43  4797  67  84454  52  5332  32  32--
3/26/18 10.3 063  43  5396  70  83454  52  5332  32  320.07
3/27/18 16.2 077  55  6484  47  69654  52  5332  32  320.12
3/28/18 4.2 1.7966  61  63100  73  91255  54  5532  32  320.04
3/29/18 6.3 0.2768  50  6099  58  88555  55  5532  32  320.05
3/30/18 15.3 059  45  5287  46  71455  55  5532  32  320.09
3/31/18 21.2 073  41  5691  26  58355  55  5532  32  320.13
4/1/18 8.9 0.0863  46  5598  45  78355  55  5532  32  320.06
4/2/18 4.8 059  41  4895  73  87355  55  5532  32  32--
4/3/18 12.3 0.2379  52  6994  49  70655  55  5532  32  320.10
4/4/18 23.0 050  36  4376  41  58655  55  5532  32  32--
4/5/18 18.0 063  32  4691  28  59355  54  5532  32  32--
4/6/18 4.1 0.3057  46  5298  47  85254  54  5432  32  320.03
4/7/18 6.5 046  30  3784  48  70654  54  5432  32  32--
4/8/18 8.5 046  30  3874  48  60354  52  5232  32  32--
4/9/18 23.2 061  36  4886  36  56352  52  5232  32  32--
4/10/18 20.5 055  39  4884  49  65452  52  5232  32  32--
4/11/18 18.1 070  34  5295  26  59252  52  5232  32  320.11
4/12/18 22.9 082  57  6954  20  38654  52  5232  32  320.21
4/13/18 15.3 079  63  7175  35  57955  54  5432  32  320.13
4/14/18 5.3 1.9673  52  62100  57  85857  55  5732  32  320.05
4/15/18 6.3 052  39  4375  55  65757  55  5732  32  32--
4/16/18 21.4 052  34  4272  47  54755  54  5532  32  32--
4/17/18 23.2 079  37  5990  29  57454  54  5432  32  320.15
4/18/18 18.9 079  61  6973  30  54755  54  5432  32  320.15
4/19/18 19.7 059  41  4867  40  51555  55  5532  32  32--
4/20/18 24.8 070  36  5293  23  54255  55  5532  32  320.14
4/21/18 21.9 073  45  5968  30  47455  55  5532  32  320.15
4/22/18 1.8 1.3364  55  5899  44  91357  55  5632  32  320.02
4/23/18 4.3 0.3459  55  5799  90  97057  57  5732  32  320.04
4/24/18 7.4 0.0263  54  57100  80  94057  57  5732  32  320.06
4/25/18 13.3 0.2472  52  58100  40  84157  57  5732  32  320.09
4/26/18 7.2 0.5864  52  5698  71  92257  57  5732  32  320.05
4/27/18 24.5 072  48  6098  39  70357  57  5732  32  320.17
4/28/18 25.0 072  48  6178  26  52357  57  5732  32  320.17
4/29/18 26.2 068  45  5673  23  45257  57  5732  32  320.18
4/30/18 26.2 077  39  5979  23  45457  57  5732  32  320.19
5/1/18 24.5 082  52  6974  23  46559  57  5732  32  320.20
5/2/18 19.3 084  64  7484  48  67559  59  5932  32  320.16
5/3/18 17.9 082  68  7570  42  59561  59  6132  32  320.15
5/4/18 7.1 0.3177  66  7193  60  78463  61  6232  32  320.07
5/5/18 9.1 0.3572  61  6699  77  92163  63  6332  32  320.08
5/6/18 24.6 084  55  69100  28  68263  63  6332  32  320.19
5/7/18 25.7 084  59  7286  33  55263  63  6332  32  320.20
5/8/18 24.3 084  54  7094  36  60264  63  6432  32  320.19
5/9/18 16.5 086  64  7575  33  56564  64  6432  32  320.14
5/10/18 19.6 090  68  7869  34  53464  64  6432  32  320.17
5/11/18 25.4 088  68  7870  35  51466  64  6532  32  320.21
5/12/18 22.6 086  66  7779  42  59466  66  6632  32  320.19
5/13/18 24.0 090  66  7883  36  60366  66  6632  32  320.20
5/14/18 25.0 091  68  8187  44  60368  66  6832  32  320.21
5/15/18 24.0 091  68  8094  34  63268  68  6832  32  320.20
5/16/18 16.1 086  66  7591  55  76370  68  7032  32  320.14
5/17/18 12.6 081  63  71100  63  84170  70  7032  32  320.11
5/18/18 18.5 0.0682  66  7299  60  85270  68  6932  32  320.15
5/19/18 13.2 0.5186  66  7299  55  85370  68  6932  32  320.11
5/20/18 18.6 090  64  7499  52  81370  68  6932  32  320.15
5/21/18 14.5 082  68  7496  65  81470  68  7032  32  320.12
5/22/18 15.5 0.0984  68  7599  66  86170  70  7032  32  320.13
5/23/18 22.9 090  66  78100  47  76170  70  7032  32  320.19
5/24/18 21.2 090  66  7998  43  72170  70  7032  32  320.18
5/25/18 14.9 0.0288  68  76100  52  81272  70  7032  32  320.13
5/26/18 18.2 088  68  7797  50  79372  72  7232  32  320.15
5/27/18 21.2 090  68  7999  43  73272  72  7232  32  320.18
5/28/18 14.8 0.2786  68  7599  56  85272  72  7232  32  320.13
5/29/18 10.2 0.3781  70  7498  69  89272  72  7232  32  320.09
5/30/18 24.6 090  72  8098  45  75472  72  7232  32  320.21
5/31/18 16.1 088  75  8187  57  73572  72  7232  32  320.14
6/1/18 11.9 0.9384  66  7499  70  87473  72  7232  32  320.10
6/2/18 22.8 091  68  79100  47  78172  72  7232  32  320.19
6/3/18 24.7 084  68  7889  36  64473  72  7232  32  320.21
6/4/18 26.6 084  61  7393  33  60273  72  7332  32  320.21
6/5/18 26.3 086  61  7393  35  61173  72  7232  32  320.21
6/6/18 27.1 091  61  7797  30  60172  72  7232  32  320.22
6/7/18 25.4 091  63  7999  32  62272  72  7232  32  320.21
6/8/18 24.7 093  66  8193  33  62272  72  7232  32  320.21
6/9/18 22.3 0.0391  70  8197  38  68273  72  7332  32  320.19
6/10/18 25.9 093  73  8390  41  65373  73  7332  32  320.22
6/11/18 21.8 090  72  8190  51  69473  73  7332  32  320.19
6/12/18 23.4 0.3190  70  8097  57  75573  73  7332  32  320.20
6/13/18 19.9 0.0790  70  7998  63  83475  73  7432  32  320.17
6/14/18 22.5 091  73  8297  53  78375  73  7432  32  320.19
6/15/18 23.8 093  72  8497  43  69275  75  7532  32  320.21
6/16/18 22.5 093  72  8498  43  69275  75  7532  32  320.20
6/17/18 26.3 093  75  8490  48  70375  75  7532  32  320.23
6/18/18 25.0 093  73  8393  43  66375  75  7532  32  320.22
6/19/18 23.3 088  72  8192  46  67275  75  7532  32  320.20
6/20/18 10.2 0.0982  73  7791  68  80275  75  7532  32  320.09
6/21/18 16.6 0.8886  70  7499  59  87475  75  7532  32  320.14
6/22/18 25.2 082  68  7596  54  75575  73  7532  32  320.21
6/23/18 19.1 090  70  7899  55  79375  73  7432  32  320.16
6/24/18 19.9 0.1390  70  8098  57  78375  73  7432  32  320.17
6/25/18 23.9 091  73  8293  57  73475  75  7532  32  320.21
6/26/18 25.5 0.1693  73  8588  50  70475  75  7532  32  320.22
6/27/18 24.9 0.0391  68  8197  54  75475  75  7532  32  320.21
6/28/18 25.4 095  77  8590  49  70475  75  7532  32  320.22
6/29/18 23.0 1.2788  68  7899  60  81375  75  7532  32  320.19
6/30/18 22.1 093  72  8399  56  78275  75  7532  32  320.19
7/1/18 25.9 093  72  8496  50  72375  75  7532  32  320.22
7/2/18 17.3 0.1191  77  8290  60  79277  75  7732  32  320.15
7/3/18 22.9 090  73  8197  55  78577  75  7632  32  320.20
7/4/18 22.7 0.2595  72  8299  52  80277  75  7632  32  320.20
7/5/18 26.2 0.4695  70  8299  54  78277  75  7632  32  320.23
7/6/18 12.3 0.4186  70  7599  70  92277  75  7732  32  320.11
7/7/18 22.0 086  70  7898  59  80375  75  7532  32  320.19
7/8/18 17.8 086  72  7798  63  83375  75  7532  32  320.15
7/9/18 16.2 0.1386  72  7899  65  87275  75  7532  32  320.14
7/10/18 21.9 093  70  81100  53  80175  75  7532  32  320.19
7/11/18 26.2 093  73  83100  51  77175  75  7532  32  320.23
7/12/18 26.9 093  72  8398  52  77175  75  7532  32  320.23
7/13/18 26.3 097  73  8499  48  76175  75  7532  32  320.23
7/14/18 23.2 095  77  8598  50  77277  77  7732  32  320.20
7/15/18 21.0 0.4393  70  8198  54  82477  77  7732  32  320.18
7/16/18 24.7 0.5793  73  8299  55  82277  77  7732  32  320.21
7/17/18 20.5 091  75  8298  56  83277  77  7732  32  320.18
7/18/18 19.9 090  73  8099  58  81177  77  7732  32  320.17
7/19/18 20.7 0.0191  72  8197  57  81377  77  7732  32  320.18
7/20/18 21.8 093  73  8395  55  77377  77  7732  32  320.19
7/21/18 26.2 090  77  8288  46  71477  77  7732  32  320.23
7/22/18 24.5 084  68  7796  54  73377  77  7732  32  320.20
7/23/18 17.8 082  66  7495  53  77377  75  7632  32  320.15
7/24/18 24.2 088  64  7696  49  73275  75  7532  32  320.20
7/25/18 24.4 090  68  78100  42  73175  75  7532  32  320.20
7/26/18 22.4 0.2191  64  7899  46  76175  75  7532  32  320.19
7/27/18 23.0 0.2688  70  7799  43  77275  75  7532  32  320.19
7/28/18 18.8 086  64  7599  54  78175  73  7532  32  320.16
7/29/18 22.0 088  64  7697  49  75275  73  7432  32  320.18
7/30/18 17.1 084  68  7698  64  81373  73  7332  32  320.15
7/31/18 15.7 084  66  7499  56  83273  73  7332  32  320.13
8/1/18 23.5 082  61  72100  55  80273  73  7332  32  320.19
8/2/18 26.2 088  63  75100  44  76273  73  7332  32  320.21
8/3/18 25.8 090  63  77100  43  73173  73  7332  32  320.21
8/4/18 23.6 090  66  7999  51  75273  73  7332  32  320.20
8/5/18 20.3 091  73  8189  52  73373  73  7332  32  320.18
8/6/18 24.4 093  70  8198  46  72273  73  7332  32  320.21
8/7/18 23.2 093  73  8389  43  65375  73  7432  32  320.20
8/8/18 13.9 0.8884  70  7799  62  83275  75  7532  32  320.12
8/9/18 15.9 0.5882  72  76100  70  86275  73  7532  32  320.14
8/10/18 20.5 0.0288  70  7799  60  84175  73  7432  32  320.17
8/11/18 23.2 0.0491  68  80100  51  77273  73  7332  32  320.20
8/12/18 23.7 0.0590  70  7999  52  78175  73  7432  32  320.20
8/13/18 22.8 090  66  78100  44  77175  73  7432  32  320.19
8/14/18 14.6 088  68  7799  60  83175  73  7432  32  320.13
8/15/18 20.5 0.0193  73  8292  47  70375  73  7332  32  320.18
8/16/18 9.1 2.4588  70  7798  70  87375  73  7532  32  320.09
8/17/18 17.9 086  68  7897  62  82375  75  7532  32  320.15
8/18/18 20.4 086  70  7898  60  81275  73  7532  32  320.17
8/19/18 16.0 090  70  79100  61  84175  75  7532  32  320.14
8/20/18 13.3 0.1884  72  7697  69  86475  75  7532  32  320.12
8/21/18 16.3 082  70  7597  63  81475  73  7532  32  320.14
8/22/18 19.2 082  66  7298  60  81275  73  7432  32  320.16
8/23/18 21.8 081  59  7097  45  74173  73  7332  32  320.17
8/24/18 18.3 088  63  7396  46  73373  73  7332  32  320.15
8/25/18 22.3 091  70  8090  50  70373  72  7332  32  320.19
8/26/18 20.7 091  73  8291  54  73373  73  7332  32  320.18
8/27/18 20.7 091  72  8193  51  73473  73  7332  32  320.18
8/28/18 20.7 095  73  8288  46  70373  73  7332  32  320.18
8/29/18 17.6 0.0791  72  7996  54  79375  73  7432  32  320.15
8/30/18 17.2 0.0190  70  7899  55  83275  73  7532  32  320.15
8/31/18 20.3 088  68  7798  62  80375  75  7532  32  320.17
9/1/18 21.1 088  66  7899  57  78475  75  7532  32  320.18
9/2/18 21.7 091  68  8098  51  74475  75  7532  32  320.19
9/3/18 21.4 090  70  8095  52  74475  75  7532  32  320.18
9/4/18 21.9 091  70  8094  47  72475  75  7532  32  320.19
9/5/18 16.3 086  68  7797  52  76475  75  7532  32  320.14
9/6/18 16.9 088  73  7898  59  81575  75  7532  32  320.15
9/7/18 16.8 088  70  7899  59  86375  75  7532  32  320.15
9/8/18 13.2 2.0088  72  7799  59  88377  75  7532  32  320.12
9/9/18 4.6 0.5972  64  6799  84  95375  75  7532  32  320.05
9/10/18 10.8 073  61  6694  63  81275  73  7532  32  320.09
9/11/18 11.6 075  57  66100  59  84173  73  7332  32  320.09
9/12/18 14.1 079  64  7095  61  81173  72  7332  32  320.12
9/13/18 18.3 091  64  7797  53  78273  72  7232  32  320.15
9/14/18 19.5 091  70  8099  45  74173  72  7332  32  320.17
9/15/18 19.8 091  68  8095  46  72273  73  7332  32  320.17
9/16/18 20.7 091  70  8097  45  73273  73  7332  32  320.18
9/17/18 17.5 091  66  78100  45  76173  73  7332  32  320.15
9/18/18 20.8 093  66  79100  40  72173  73  7332  32  320.18
9/19/18 20.2 095  68  8198  42  72173  73  7332  32  320.18
9/20/18 18.6 093  70  8198  41  70275  73  7532  32  320.16
9/21/18 15.1 0.3493  73  8187  45  71375  75  7532  32  320.14
9/22/18 4.1 1.6172  64  6799  91  97375  75  7532  32  320.04
9/23/18 2.7 0.8572  64  6799  98  99275  73  7432  32  320.03
9/24/18 7.1 1.6881  70  7399  79  95473  73  7332  32  320.07
9/25/18Incomplete records (33) were available today.
9/26/18Incomplete records (31) were available today.
9/27/18 5.2 0.8966  57  6298  71  85373  72  7332  32  320.05
9/28/18 18.5 077  52  64100  55  83172  72  7232  32  320.14
9/29/18 17.3 081  57  67100  50  82172  70  7132  32  320.13
9/30/18 18.7 086  57  70100  43  77172  70  7032  32  320.15
10/1/18 11.3 086  63  73100  43  82170  70  7032  32  320.10
10/2/18 13.2 0.3690  70  7799  54  83272  70  7132  32  320.12
10/3/18 16.3 088  68  7899  54  79372  72  7232  32  320.14
10/4/18 15.8 090  72  8091  48  73372  72  7232  32  320.14
10/5/18 16.5 090  72  8092  48  71373  72  7232  32  320.15
10/6/18 15.8 088  70  7891  46  72373  73  7332  32  320.14
10/7/18 17.0 090  66  7794  44  71473  73  7332  32  320.15
10/8/18 16.3 088  66  7794  48  73673  73  7332  32  320.14
10/9/18 15.8 086  70  7790  53  73873  73  7332  32  320.14
10/10/18 12.5 0.2081  68  7498  62  80573  73  7332  32  320.11
10/11/18 16.8 068  52  5990  46  70473  72  7332  32  320.11
10/12/18 10.6 063  45  5392  46  73172  70  7132  32  320.07
10/13/18 4.9 0.0357  52  5493  69  82370  70  7032  32  320.04
10/14/18 1.8 0.5070  52  6199  94  98268  68  6832  32  320.02
10/15/18 2.6 3.0464  46  56100  89  96468  66  6832  32  320.03
10/16/18 3.9 0.0450  45  4796  76  88368  66  6732  32  32--
10/17/18 16.1 0.0170  41  55100  38  74266  64  6632  32  320.10
10/18/18 15.0 064  48  5479  33  59264  64  6432  32  320.09
10/19/18 12.3 0.1972  41  5598  31  72264  64  6432  32  320.08
10/20/18 12.8 0.3066  54  5799  38  79464  64  6432  32  320.09
10/21/18 16.7 059  36  4790  31  53364  63  6432  32  32--
10/22/18 14.9 068  34  4999  31  71263  63  6332  32  32--
10/23/18 14.2 072  41  54100  36  75161  61  6132  32  320.09
10/24/18 14.6 066  41  5389  37  63261  61  6132  32  320.09
10/25/18 4.0 0.1757  48  5298  66  85461  61  6132  32  320.03
10/26/18 2.5 0.1855  50  53100  83  94561  61  6132  32  320.02
10/27/18 13.0 064  46  5496  53  80361  61  6132  32  320.08
10/28/18 14.0 075  50  6195  37  72461  61  6132  32  320.10
10/29/18 14.6 070  41  5592  26  55361  61  6132  32  320.09
10/30/18 13.5 079  52  6476  36  61561  61  6132  32  320.10
10/31/18 7.6 0.4175  63  6897  65  79661  61  6132  32  320.07
11/1/18 2.7 0.6368  45  5798  85  93663  61  6232  32  320.03
11/2/18 8.5 0.1355  41  4799  56  87363  61  6232  32  32--
11/3/18 11.6 0.0163  37  50100  48  80461  61  6132  32  32--
11/4/18 3.3 0.1457  52  5594  71  85861  61  6132  32  320.03
11/5/18 5.8 1.4266  46  57100  70  91661  59  6032  32  320.05
11/6/18 13.7 0.0370  50  58100  24  74261  59  5932  32  320.10
11/7/18 6.0 0.1761  50  5392  60  77261  59  6032  32  320.04
11/8/18 11.0 059  45  5079  40  63361  59  5932  32  32--
11/9/18 5.0 0.3650  37  4298  64  82459  59  5932  32  32--
11/10/18 13.5 041  28  3384  40  62459  57  5832  32  32--
11/11/18 10.8 052  25  3783  32  60257  55  5632  32  32--
11/12/18 1.2 0.4346  37  4399  64  86355  55  5532  32  32--
11/13/18 2.5 0.1837  28  3396  77  87055  54  5532  32  32--
11/14/18 1.5 030  27  2898  76  85354  54  5432  32  32--
11/15/18 3.5 0.0136  28  3098  78  90454  52  5332  32  32--
11/16/18 10.8 0.0159  30  4288  43  71352  52  5232  32  32--
11/17/18 12.6 068  36  4998  34  70352  52  5232  32  32--
11/18/18 9.3 063  43  5188  56  74352  52  5232  32  320.06
11/19/18 3.9 048  43  4698  73  86452  52  5232  32  32--
11/20/18 7.6 046  32  4098  66  80352  52  5232  32  32--
11/21/18 11.8 055  25  3898  44  78152  52  5232  32  32--
11/22/18 11.8 061  30  4499  38  71252  52  5232  32  32--
11/23/18 3.5 0.4254  39  4795  61  76852  52  5232  32  32--
11/24/18 10.8 066  50  5597  49  80352  52  5232  32  320.07
11/25/18 5.1 0.0363  45  5396  53  78952  52  5232  32  320.04
11/26/18 3.2 041  30  3572  59  66752  52  5232  32  32--
11/27/18 10.5 034  23  2888  54  71052  50  5232  32  32--
11/28/18 10.3 046  19  3495  45  72350  50  5032  32  32--
11/29/18 3.2 059  41  5195  60  74650  50  5032  32  320.03
11/30/18 4.8 0.4870  63  6598  77  89550  50  5032  32  320.05
12/1/18 5.2 0.6470  61  6497  39  81955  52  5332  32  320.05
12/2/18 10.5 061  46  5668  37  52554  54  5432  32  320.07
12/3/18 5.3 045  34  4088  62  72454  54  5432  32  32--
12/4/18 3.6 039  32  3780  55  67054  52  5332  32  32--
12/5/18 10.9 043  27  3382  51  67352  52  5232  32  32--
12/6/18 2.5 041  27  3588  56  75252  50  5032  32  32--
12/7/18 1.2 0.0539  37  3898  89  95050  50  5032  32  32--
12/8/18 0.9 0.7737  32  3497  94  96050  46  4932  32  32--
12/9/18 3.5 0.7834  30  3297  89  95046  45  4532  32  32--
12/10/18 8.3 039  27  3195  65  84346  45  4532  32  32--
12/11/18 10.7 050  23  3597  40  72346  46  4632  32  32--

 
Copyright ©2012 Biosystems Engineering & Soil Science · Webmaster · Disclaimer